User: anonymous   Login
Location: Newsoms
(36.6240°N, 77.1250°W)
Time: 13:29:15
(UTC-05:00)
Language:

BREEZE-M DEB (TANK) - Orbit

View from above orbital plane
View from above orbital plane
View from above satellite
View from above satellite

Ground track
Ground track

The orbit data is extracted from the following two-line orbital elements,

1 29649U 06056B   15029.39333741  .00003116  00000-0  78415-3 0   986
2 29649 049.4626 147.1579 5391728 340.7385 012.0225 04.95863781144431
Epoch (UTC): 29 January 2015 09:26:24
Eccentricity: 0.5391728
inclination: 49.4626°
perigee height: 316 km
apogee height: 15980 km
right ascension of ascending node: 147.1579°
argument of perigee: 340.7385°
revolutions per day: 4.95863781
mean anomaly at epoch: 12.0225°
orbit number at epoch: 14443

The dashed part of the orbit path shows where the satellite is in the earth's shadow,  

DLR